ONEWEB-0333 (49199 NORAD) Tracking and Keplerian Element Data

This shows tracking and keplerian element data for the satellite.

Feedback or suggestion? Click here.




ElementValue
Catalog49199
NameONEWEB-0333
Epoch Orbit592
Epoch Day288.25002315
Epoch Year2021
RAAN317.4533
Inclination87.2149
Eccentricity0.001786
Argument of Perigee189.6604
Mean Anonmoly149.0465
Mean Motion14.91321913
Decay Rate-0.01395953
L11 49199U 21083P 21288.25002315 -.01395953 00000-0 -15259+0 0 9993
L22 49199 87.2149 317.4533 0017860 189.6604 149.0465 14.91321913 5926

Live tracking and technical data element details for ONEWEB-0333 (NORAD 49199). ONEWEB-0333 can be tracked NOW for your location showing map with azimuth and elevation plus other details from your city location.

Track the satellite on the map from your city or location and see movement details for azimuth, elevation, latitude, longitude, range, height, and movement on the map or in text.







IsCatalogInMostPopularTable: catalog: 49199, numindb: 8
Update: records affected: 1



GetName: 49199 ONEWEB-0333

Hit Count: updated at: Tue, 19 Oct 2021 09:36:16 GMT